Wind_Speed
5 5 5 5 5 5 5 6 6 7 7 8 9 9 10 10 10 9 3 2 1 3 4 7 9 10 2 3 3 2 2 2 3 5 1 8 5 4 3 6 4 3 4 11 23
5 6 7 7 7 7 7 7 8 8 8 9 9 9 10 11 10 6 1 3 3 2 4 8 9 2 3 3 2 1 0 3 4 6 2 6 5 7 4 6 4 7 9 22 25
6 6 7 8 9 9 9 9 9 9 9 9 10 9 10 10 8 3 5 3 2 1 4 7 9 3 3 3 3 1 2 2 3 5 7 11 7 6 5 6 10 16 21 25 26
7 7 7 8 9 10 10 10 10 11 10 10 10 10 9 7 1 4 4 3 1 1 2 6 8 2 2 3 1 2 6 4 3 6 8 9 7 4 7 4 3 16 22 29 26
8 8 8 9 9 9 9 10 10 11 10 10 10 10 8 5 7 5 4 0 1 3 3 6 9 3 4 2 3 2 2 2 1 7 7 9 6 2 3 2 13 19 22 26 22
9 9 9 9 9 9 9 9 10 10 10 9 10 9 7 5 6 7 6 3 2 2 3 7 6 5 3 2 2 5 5 6 3 9 7 6 3 4 5 9 15 18 20 21 21
10 9 9 9 9 9 8 8 8 8 8 8 8 8 10 15 6 6 7 4 2 1 3 5 7 6 2 2 7 5 3 2 2 7 5 7 3 8 13 15 16 17 18 19 20
12 10 10 9 8 8 7 7 7 7 7 7 7 7 8 5 15 10 8 4 1 1 2 2 5 4 3 4 3 4 2 4 2 6 2 8 6 5 17 20 18 17 18 19 21
12 11 10 9 7 6 6 6 6 6 6 6 5 5 5 3 8 13 9 4 1 1 3 2 3 4 3 3 2 7 4 5 5 4 2 8 5 4 17 17 18 18 18 19 18
12 12 10 7 5 5 5 5 5 5 6 5 6 3 2 2 6 12 10 4 1 2 4 2 4 2 2 2 2 4 4 5 5 0 4 8 12 4 16 18 18 18 18 18 18
13 11 9 6 5 6 6 4 2 3 9 5 1 2 3 6 7 9 12 7 1 3 3 4 3 4 1 3 1 2 3 8 4 5 6 10 12 6 12 16 17 18 19 19 20
12 10 7 5 5 7 8 4 3 2 5 10 14 13 11 4 3 7 12 6 4 4 3 3 8 2 2 4 4 3 5 4 7 3 6 4 9 4 10 16 21 22 22 21 15
11 8 5 4 6 8 9 7 3 4 2 3 4 6 3 7 5 12 14 6 4 5 4 4 1 2 2 3 5 5 4 3 5 5 1 4 2 4 1 10 13 19 20 18 19
10 6 4 4 6 9 10 7 5 4 1 2 3 2 6 5 4 12 13 5 2 6 6 4 2 3 2 3 3 4 2 2 2 2 2 5 3 2 7 5 6 12 16 16 17
8 5 4 8 5 12 10 6 4 5 4 4 3 3 8 3 8 8 13 7 4 4 4 3 4 2 5 2 6 0 2 1 2 3 2 2 3 1 7 5 7 7 5 14 19
6 4 6 10 11 12 7 6 5 2 3 5 5 6 6 1 2 5 5 6 2 3 2 5 1 3 3 2 4 6 2 3 2 1 3 2 3 2 4 7 11 17 17 10 16
4 3 7 11 13 8 6 10 2 2 1 6 4 6 7 5 4 2 7 8 4 3 2 1 3 2 4 3 3 3 3 3 3 3 1 1 3 3 7 8 11 14 13 3 7
3 4 7 12 14 8 13 2 3 1 3 2 4 9 7 5 2 3 7 7 2 1 0 1 5 2 4 5 3 3 4 3 3 2 2 1 3 2 5 6 7 6 6 8 8
1 5 8 15 13 8 5 3 2 3 0 5 5 9 3 4 2 4 7 8 8 12 4 4 2 1 1 2 2 6 3 2 5 1 3 1 1 3 1 5 9 10 11 12 12
2 6 8 15 11 7 2 3 3 3 2 3 5 3 8 7 7 5 6 2 4 9 9 2 2 2 4 3 11 1 7 3 1 4 3 2 4 2 4 6 8 9 12 11 12
5 5 6 14 10 3 3 4 5 7 6 5 4 4 4 5 6 5 5 2 3 4 8 5 2 2 3 5 2 3 3 4 2 2 2 5 4 3 8 7 8 9 11 13 13
2 2 12 9 2 1 3 3 4 4 1 4 2 3 5 5 4 4 6 1 1 7 8 2 2 2 3 1 1 2 3 0 4 4 0 2 3 1 7 10 10 10 12 13 14
4 6 8 3 2 2 2 4 4 4 3 2 1 1 2 4 4 2 2 3 2 1 5 7 1 3 3 4 3 3 3 3 2 1 5 4 2 3 8 12 11 13 11 11 11
3 3 2 2 2 1 1 2 4 4 3 0 2 3 3 3 5 4 3 2 3 4 7 3 3 2 3 2 2 2 1 2 2 3 1 5 2 8 10 13 15 13 10 9 8
1 2 3 3 3 2 1 2 3 2 3 3 3 3 4 4 3 3 2 3 4 3 4 1 2 1 1 2 2 0 4 3 6 5 7 4 5 11 14 14 17 14 10 7 5
2 1 2 3 1 3 2 3 2 1 3 1 4 2 2 4 1 6 6 2 2 3 3 1 3 2 3 3 1 4 5 4 5 4 9 6 5 5 15 15 14 13 10 6 4
6 4 2 1 3 3 3 1 1 1 8 5 7 7 11 5 4 6 5 6 3 2 3 2 6 4 3 1 2 7 4 5 2 3 3 5 1 13 12 16 17 14 11 10 8
Wind_Direction
287 270 266 265 266 268 272 277 282 286 292 298 306 315 321 329 328 321 328 174 352 334 348 349 351 332 324 130 117 102 88 161 187 172 203 151 153 104 123 120 112 106 128 151 154
298 283 275 269 264 262 265 268 272 277 283 289 296 308 318 328 328 323 203 226 285 308 350 357 351 27 85 96 145 201 178 219 170 187 168 162 153 162 158 157 134 111 116 148 155
310 294 282 275 270 266 262 264 267 271 277 282 289 298 312 328 339 88 91 137 136 319 357 4 2 115 98 137 162 192 240 217 190 174 146 156 183 186 183 186 196 174 153 159 161
318 301 288 280 274 271 268 266 266 268 271 275 280 290 300 316 157 150 82 87 65 136 23 9 21 68 74 114 174 270 282 212 79 155 137 161 165 204 214 346 232 174 168 166 170
327 310 293 283 278 274 271 267 265 266 269 272 275 281 290 277 254 247 303 66 85 134 69 21 35 48 68 64 140 269 324 227 257 168 174 157 184 181 187 346 122 147 164 170 174
331 318 302 287 277 274 270 266 264 265 268 269 273 274 271 258 250 244 260 188 163 129 80 40 22 23 81 58 43 321 311 278 251 178 175 166 170 188 122 137 136 148 168 178 182
329 320 307 292 279 272 268 264 262 264 265 267 270 269 258 247 237 196 177 169 235 210 100 40 23 15 23 78 339 326 344 328 153 167 191 181 194 213 157 152 151 162 172 185 192
326 319 311 298 279 270 265 264 261 261 262 264 265 267 252 238 236 207 187 203 274 197 131 50 20 18 39 347 18 20 44 336 57 175 173 193 292 154 166 160 166 173 180 192 202
323 318 312 299 277 261 254 253 252 252 251 255 261 241 259 226 205 195 205 193 112 188 139 70 48 45 31 22 88 30 326 340 335 217 157 204 278 94 173 177 174 183 188 195 202
320 316 311 296 264 239 231 232 238 241 237 242 244 273 248 115 164 188 191 198 156 156 133 109 56 46 74 331 27 354 331 325 284 241 179 218 251 150 182 191 190 191 196 199 205
318 313 306 282 242 219 206 186 209 255 226 208 197 249 157 27 174 193 205 212 208 92 167 39 251 249 206 108 164 144 277 300 257 257 222 220 259 253 192 199 199 202 208 209 212
318 311 297 259 230 204 192 197 202 156 298 245 246 257 265 286 149 169 169 158 153 136 126 174 238 214 190 134 214 214 245 296 294 348 220 177 248 311 194 219 210 203 211 215 211
320 308 277 244 208 191 188 195 178 296 280 274 234 241 183 168 178 171 167 150 123 137 172 192 114 137 225 210 235 207 274 256 267 347 4 315 263 31 64 237 217 219 224 220 211
320 297 245 207 184 180 183 200 250 240 323 172 209 180 177 152 122 157 169 154 139 190 170 235 168 204 147 313 215 268 259 225 250 239 268 343 312 292 344 316 211 231 233 228 218
315 273 221 174 177 163 175 209 157 153 150 155 157 180 166 162 134 180 186 190 169 158 199 124 188 174 322 198 188 354 86 48 133 157 239 48 258 77 1 2 26 4 287 242 227
308 250 207 185 160 159 177 180 148 223 151 161 142 162 153 155 106 124 157 181 150 179 222 254 194 235 227 146 192 140 109 74 93 135 237 12 276 93 6 325 323 330 328 283 217
298 224 189 172 163 159 163 151 199 221 86 157 158 166 167 164 200 129 170 184 214 207 300 277 196 230 202 187 125 172 215 263 197 174 87 293 245 6 338 338 330 330 344 41 177
265 198 176 166 161 151 151 178 218 171 195 121 119 129 175 151 161 137 155 192 180 145 331 277 199 195 158 228 194 177 247 258 295 177 115 163 232 66 344 4 10 20 52 88 117
162 176 171 175 166 150 156 211 254 204 140 150 124 153 136 172 187 179 185 197 210 196 221 184 234 289 244 162 216 153 194 61 117 59 212 0 242 215 93 58 60 61 78 86 95
160 136 151 168 166 156 157 262 261 228 304 190 162 178 172 166 179 194 177 170 187 200 211 186 240 57 117 148 56 279 133 183 165 179 170 170 276 246 174 103 88 82 83 87 95
135 117 137 148 147 156 216 249 273 266 230 198 178 135 140 162 209 182 179 134 189 152 182 163 229 121 246 27 41 153 146 70 104 296 197 168 229 204 169 144 119 103 95 99 99
115 100 143 147 150 24 209 230 304 282 154 238 151 118 144 150 149 185 195 278 1 163 158 172 153 96 76 71 342 36 85 275 264 189 222 291 197 333 186 159 143 124 113 104 101
103 101 155 125 178 192 270 275 271 305 332 360 140 69 74 120 122 135 134 5 8 156 158 172 59 132 145 173 135 57 56 90 78 320 193 233 184 148 156 153 156 142 132 118 105
135 124 167 211 126 128 279 295 291 278 255 305 102 119 124 90 49 125 123 38 56 88 100 73 102 267 265 85 99 169 158 89 290 268 163 248 190 191 183 170 163 155 148 132 115
70 98 163 181 196 200 288 310 294 305 343 14 104 75 118 111 100 119 144 146 90 144 61 70 118 114 104 117 149 215 281 262 250 263 247 295 231 194 189 175 167 159 151 137 120
79 108 119 103 139 176 170 220 263 122 323 302 124 69 68 116 52 175 155 188 145 95 88 55 131 165 210 163 86 271 239 273 246 238 251 265 241 198 171 165 164 165 160 156 151
43 64 91 51 139 187 194 213 162 173 53 61 113 104 77 76 76 89 81 88 71 162 130 154 150 169 256 30 295 259 274 260 215 229 267 228 145 154 160 173 171 173 180 185 185
Height
1521 1520 1520 1520 1520 1520 1520 1520 1520 1520 1520 1519 1519 1518 1518 1518 1517 1515 1515 1516 1516 1515 1514 1513 1511 1510 1509 1510 1512 1512 1516 1522 1520 1522 1518 1519 1520 1524 1525 1526 1530 1532 1533 1534 1538
1520 1519 1519 1519 1519 1519 1519 1519 1519 1519 1518 1518 1518 1518 1517 1517 1516 1515 1516 1515 1516 1515 1514 1513 1512 1510 1511 1513 1514 1513 1516 1515 1512 1513 1515 1519 1521 1524 1526 1528 1531 1532 1534 1536 1539
1519 1518 1518 1517 1517 1517 1517 1517 1517 1517 1517 1517 1517 1517 1516 1516 1516 1515 1514 1515 1515 1515 1515 1514 1512 1511 1512 1514 1514 1514 1514 1510 1510 1512 1515 1519 1522 1524 1524 1527 1527 1529 1534 1537 1540
1518 1517 1516 1516 1515 1515 1515 1515 1515 1515 1515 1515 1515 1515 1515 1516 1518 1515 1515 1515 1515 1515 1515 1514 1512 1512 1512 1512 1514 1514 1510 1511 1511 1512 1515 1519 1521 1523 1524 1524 1524 1528 1531 1535 1540
1516 1515 1514 1514 1513 1513 1513 1513 1513 1513 1513 1513 1514 1514 1515 1515 1515 1514 1515 1514 1515 1515 1515 1515 1513 1513 1512 1513 1513 1512 1510 1510 1513 1513 1514 1518 1519 1521 1524 1524 1525 1529 1533 1536 1541
1514 1513 1512 1511 1511 1511 1511 1511 1511 1511 1511 1512 1512 1512 1514 1515 1512 1513 1514 1515 1515 1515 1514 1514 1514 1513 1513 1514 1513 1514 1512 1510 1511 1514 1514 1516 1519 1520 1524 1525 1528 1530 1534 1538 1542
1512 1511 1510 1509 1509 1509 1509 1509 1509 1509 1510 1510 1510 1510 1511 1509 1510 1511 1513 1514 1515 1515 1514 1514 1513 1514 1512 1513 1514 1513 1511 1510 1511 1513 1514 1515 1518 1518 1521 1525 1529 1532 1535 1539 1541
1510 1508 1507 1506 1506 1506 1507 1507 1507 1508 1508 1508 1508 1509 1507 1505 1507 1509 1512 1514 1514 1514 1514 1514 1513 1513 1513 1515 1515 1515 1514 1519 1513 1513 1514 1515 1518 1516 1520 1523 1528 1531 1534 1536 1538
1507 1506 1504 1504 1503 1504 1505 1505 1505 1506 1506 1507 1508 1508 1504 1503 1505 1508 1510 1512 1513 1513 1513 1514 1514 1515 1515 1515 1518 1519 1526 1524 1518 1514 1514 1514 1513 1516 1520 1523 1526 1529 1531 1533 1537
1505 1503 1502 1501 1501 1502 1503 1504 1504 1505 1505 1506 1506 1509 1502 1503 1503 1506 1509 1512 1513 1512 1513 1514 1515 1515 1518 1517 1533 1532 1528 1524 1525 1515 1513 1515 1511 1515 1519 1522 1524 1527 1529 1532 1535
1502 1500 1499 1499 1499 1500 1502 1503 1507 1506 1503 1501 1502 1501 1500 1502 1503 1505 1508 1511 1512 1512 1513 1516 1517 1521 1518 1520 1523 1524 1528 1528 1519 1513 1513 1512 1510 1510 1516 1520 1522 1524 1526 1529 1531
1499 1497 1497 1497 1497 1498 1500 1501 1502 1503 1501 1498 1499 1499 1499 1501 1503 1504 1508 1511 1512 1514 1516 1517 1519 1516 1518 1520 1522 1524 1526 1520 1511 1511 1512 1513 1511 1511 1514 1514 1517 1520 1522 1526 1532
1496 1495 1494 1495 1496 1497 1499 1500 1500 1501 1501 1497 1497 1497 1499 1500 1501 1503 1507 1509 1511 1515 1516 1516 1515 1516 1516 1518 1520 1518 1517 1518 1518 1513 1512 1511 1512 1515 1513 1513 1514 1517 1520 1525 1529
1493 1493 1492 1493 1497 1496 1498 1499 1499 1500 1501 1497 1496 1496 1498 1498 1501 1503 1506 1509 1511 1512 1515 1514 1514 1513 1514 1514 1514 1516 1512 1515 1517 1520 1523 1517 1528 1514 1513 1510 1512 1515 1518 1523 1525
1491 1490 1491 1492 1492 1495 1498 1498 1498 1500 1514 1495 1495 1495 1496 1499 1500 1503 1505 1507 1508 1510 1513 1513 1511 1511 1512 1510 1512 1512 1512 1515 1516 1520 1521 1521 1524 1512 1513 1510 1512 1515 1517 1518 1520
1488 1488 1489 1491 1492 1494 1496 1497 1499 1504 1512 1494 1492 1494 1496 1498 1499 1502 1504 1507 1507 1508 1510 1507 1508 1507 1505 1507 1509 1511 1512 1518 1521 1519 1531 1530 1528 1515 1521 1521 1514 1515 1512 1511 1515
1486 1487 1488 1490 1492 1494 1495 1498 1503 1505 1490 1494 1492 1492 1494 1497 1498 1499 1502 1505 1508 1515 1512 1506 1505 1504 1504 1506 1508 1509 1512 1527 1532 1531 1534 1530 1530 1520 1521 1520 1519 1516 1512 1510 1514
1485 1486 1487 1490 1492 1493 1496 1499 1509 1489 1488 1485 1488 1491 1495 1496 1499 1500 1502 1506 1508 1508 1513 1515 1516 1501 1500 1500 1503 1509 1509 1522 1545 1537 1531 1530 1529 1520 1521 1522 1521 1519 1516 1515 1517
1484 1484 1486 1489 1492 1494 1497 1502 1494 1489 1484 1485 1488 1492 1496 1495 1496 1498 1498 1500 1499 1503 1514 1517 1512 1500 1501 1500 1501 1512 1513 1511 1525 1538 1531 1533 1524 1518 1520 1522 1522 1521 1519 1520 1522
1483 1484 1486 1489 1492 1495 1496 1502 1491 1486 1483 1483 1487 1487 1496 1495 1496 1498 1501 1497 1498 1500 1501 1505 1514 1502 1501 1501 1503 1500 1509 1517 1519 1540 1545 1537 1533 1521 1520 1523 1523 1524 1523 1525 1526
1484 1485 1488 1490 1493 1494 1496 1494 1489 1484 1484 1483 1484 1488 1489 1493 1492 1495 1496 1496 1496 1498 1502 1502 1508 1507 1502 1507 1510 1508 1509 1518 1516 1523 1527 1538 1526 1514 1516 1522 1525 1527 1528 1528 1529
1484 1486 1489 1491 1494 1497 1493 1492 1489 1483 1481 1480 1480 1481 1484 1490 1494 1496 1495 1497 1497 1497 1499 1503 1503 1512 1513 1510 1511 1509 1513 1513 1513 1527 1528 1520 1518 1517 1517 1522 1526 1528 1529 1530 1532
1484 1487 1490 1490 1491 1493 1493 1490 1488 1482 1480 1478 1478 1480 1483 1488 1496 1494 1496 1497 1497 1497 1497 1500 1508 1518 1517 1511 1511 1513 1515 1519 1520 1519 1523 1519 1513 1518 1520 1523 1526 1529 1531 1531 1532
1484 1487 1490 1490 1491 1492 1493 1489 1487 1483 1481 1480 1480 1481 1483 1489 1492 1496 1497 1498 1498 1499 1499 1501 1509 1509 1514 1513 1513 1516 1516 1519 1516 1518 1519 1512 1515 1520 1520 1521 1525 1529 1531 1532 1533
1483 1486 1487 1487 1490 1491 1492 1490 1487 1484 1480 1479 1480 1480 1481 1491 1493 1497 1497 1497 1498 1499 1499 1501 1510 1514 1515 1515 1515 1516 1517 1518 1518 1513 1517 1507 1510 1510 1515 1519 1524 1529 1531 1533 1534
1484 1486 1487 1489 1490 1491 1493 1488 1486 1484 1484 1479 1478 1485 1483 1487 1488 1494 1493 1495 1495 1499 1501 1504 1516 1516 1515 1517 1518 1517 1515 1517 1516 1517 1515 1514 1512 1511 1517 1522 1525 1528 1531 1533 1534
1486 1487 1487 1490 1490 1489 1487 1486 1483 1484 1485 1483 1483 1483 1486 1491 1492 1492 1494 1495 1497 1498 1502 1504 1510 1515 1517 1520 1516 1519 1513 1515 1517 1515 1513 1513 1508 1514 1518 1521 1525 1529 1531 1533 1534